COSMOS 2251 DEB, 33913

Orbit data source: Space-Track

COSMOS 2251 DEB, 33913 is space debris in LEO originally from a launch on Wed, 16 Jun 1993 UTC launched from the Plesetsk Missile And Space Complex (PKMTR). The debris from Iridium 33, an American commercial communications satellite, has been tracked extensively since its accidental collision with the defunct Russian satellite Cosmos 2251 in 2009. This event, occurring at high speed in low Earth orbit (LEO), generated thousands of pieces of space debris, significantly increasing the risk of further collisions. The Iridium 33 debris cloud has impacted space traffic management and orbital debris mitigation strategies, making it a subject of ongoing study in space situational awareness.

Loading next visibility...
Identifier
33913, 1993-036DS
Orbit
LEO
Country
Flag of CISCIS
Related business
Manufacturer
Unknown
Mission
Spacecraft
Bus & Motor
Unknown
Mass
Unknown
Launch date (UTC)
1993-06-16 (33 years ago)
Launch vehicle
Unknown
Launch site
Plesetsk Missile And Space Complex (PKMTR)
Object type
Payload
Rocket body
Debris
Shape & HBR
Unknown shape, 0.1 m
Radar Cross Section
Small (<0.1 m²)

Expand to show TLE details & history
Last TLE update: 16 hours ago

TLE from 16 hours ago
0 COSMOS 2251 DEB
1 33913U 93036DS  26048.44308259  .00001715  00000-0  45515-3 0  9992
2 33913  74.0322  58.6366 0045850 147.4366 342.0896 14.48832439894230
Epoch: 2026-02-17T10:38Z
TLE epoch observation values (Epoch: 2026-02-17T10:38:02.335Z)
Latitude
48.12081°
Longitude
-86.80322°
Altitude
705.645 km
Speed
7.524 km/s
True Right ascension
14h 40m 31s
True Declination
47° 56' 55"
Sunlit
Object was in daylight at epoch
Visualization orbit readout
Latitude
Unknown
Longitude
Unknown
Altitude
Unknown
Speed
Unknown
Apparent Right ascension
Unknown
Apparent Declination
Unknown
Sunlit
N/A
Visualization observer readout
Local Sidereal Time
05:59:39
Azimuth
Unknown
Elevation
Unknown
Doppler factor
Unknown
Orbital elements
Apogee altitude
759.652 km
Perigee altitude
694.497 km
Semi-major axis
7,105.212 km
Eccentricity
0.00459
Inclination
74.0322°
RAAN
58.6366°
Arg. of periapsis
147.4366°
True anomaly
341.92714°
Mean anomaly
342.0896°
Eccentric anomaly
342.00846°
Mean motion
3.62391 °/min
Orbital period
99.34 mins
BSTAR
0.00045515
Loading maneuver chart data...
Computing Atmospheric mass density...

Documentation

Showing up to 5 results
|